Powrót do katalogu

SL-8 R/B

AktywnyLEO
NORAD 4784·ROCKET BODY·🇷🇺 Russia

Wystrzelony Dec 2, 1970 z Plesetsk Cosmodrome

Loading…

Następne Przeloty

TLE

Source: Space-Track
1 04784U 70102B   26218.93869248 -.00000062  00000-0 -39415-4 0  9997
2 04784  74.0275 189.0106 0026480 193.7920 224.7724 13.77009111796152

Śledź SL-8 R/B w czasie rzeczywistym z AllMySat

Download on the App Store